Miscellaneous Local Product
Issued by NWS Hastings, NE

Home | Current Version | Previous Version | Graphics & Text | Print | Product List | Glossary On
Versions: 1 2 3 4 5 6 7 8 9 10 11 12 13 14 15 16 17 18 19 20 21 22 23 24 25 26 27 28 29 30 31 32 33 34 35 36 37 38 39 40 41 42 43 44 45 46 47 48 49 50
414
AXUS43 KGID 240402
MISGRI

GID CWA HOURLY WEATHER ROUNDUP
NATIONAL WEATHER SERVICE HASTINGS NE
1100 PM CDT MON MAY 23 2016

NOTE: "FAIR" INDICATES FEW OR NO CLOUDS BELOW 12,000 FEET WITH NO
SIGNIFICANT WEATHER AND/OR OBSTRUCTIONS TO VISIBILITY.

...SOUTH CENTRAL NEBRASKA...

CITY           SKY/WX    TMP DP  RH WIND       PRES   REMARKS
GRAND ISLAND   MOCLDY    60  59  96 S6        29.81R
HASTINGS       CLOUDY    64  62  93 SE3       29.82R
KEARNEY        PTCLDY    63  61  94 E7        29.83R
ORD            CLEAR     63  59  87 S5        29.79R
YORK           LGT RAIN  59  59 100 SE5       29.80F
AURORA         CLOUDY    61  60  96 SW10      29.80R
LEXINGTON      CLEAR     62  56  78 CALM      29.83R
HOLDREGE       CLEAR     64  57  80 CALM      29.82R
HEBRON         MOCLDY    69  60  73 S12G17    29.81R

...NEBRASKA PANHANDLE...

CITY           SKY/WX    TMP DP  RH WIND       PRES   REMARKS
CHADRON        PTCLDY    54  41  61 SW13      29.85R
ALLIANCE       CLEAR     44  42  93 CALM      29.87R
SCOTTSBLUFF    CLEAR     46  43  89 N7        29.89R
SIDNEY         MOCLDY    47  42  83 S3        29.92R

...WESTERN AND NORTH CENTRAL NEBRASKA...

CITY           SKY/WX    TMP DP  RH WIND       PRES   REMARKS
VALENTINE      MOCLDY    66  37  34 W12       29.80R
AINSWORTH      PTCLDY    64  42  43 W6        29.81R
ONEILL         CLEAR     65  53  65 S6        29.78R
BROKEN BOW     CLEAR     58  47  66 CALM      29.82R
IMPERIAL       CLEAR     56  44  64 NW14      29.89R
NORTH PLATTE   CLEAR     55  45  68 NW9       29.85R
MCCOOK         PTCLDY    63  49  60 N3        29.82R

...EASTERN NEBRASKA...

CITY           SKY/WX    TMP DP  RH WIND       PRES   REMARKS
NORFOLK        CLOUDY    64  56  75 SE7       29.80R
SO SIOUX CITY    N/A    N/A N/A N/A MISG      29.79R
TEKAMAH        LGT RAIN  65  63  93 E6        29.83R
COLUMBUS       CLOUDY    70  57  64 S6        29.81S
ALBION         CLOUDY    62  58  87 SE6       29.81R
OMAHA EPPLEY   CLOUDY    68  62  81 S8        29.83R
MILLARD        CLOUDY    67  62  85 SE3       29.83R
LINCOLN        CLOUDY    71  61  70 S14       29.81R
NEBRASKA CITY  CLOUDY    67  62  84 S12       29.84R
BEATRICE       CLOUDY    68  61  77 S12       29.83R
FALLS CITY     CLOUDY    68  62  81 S7        29.86R

...NORTHERN KANSAS...

CITY           SKY/WX    TMP DP  RH WIND       PRES   REMARKS
GOODLAND       CLEAR     57  50  77 E7        29.84R
HILL CITY      CLEAR     64  61  90 CALM      29.80R
NORTON         CLEAR     66  57  72 CALM      29.81R
PHILLIPSBURG   TSTM      68  64  88 NE5       29.80R
SMITH CENTER   MOCLDY    66  63  88 E9        29.82R
BELOIT         PTCLDY    66  61  82 SE9G16    29.81R
HAYS           CLOUDY    72  63  73 S15       29.80R
RUSSELL        CLOUDY    69  65  86 SE14      29.79R
CONCORDIA      PTCLDY    68  59  73 S15       29.82R
SALINA         CLOUDY    70  62  76 S16       29.83R
TOPEKA         MOCLDY    65  61  87 SE3       29.88R



USA.gov is the U.S. government's official web portal to all federal, state and local government web resources and services.